Location: East Guldeford
(50.9500°N, 0.7500°E)
Time: 09:38:05
(UTC+00:00)

Cosmos 158 Rocket - Pass Details

Date: 12 May 2021
Orbit: 699 x 793 km, 74.0° (Epoch: 16 June)

Event Time Altitude Azimuth Distance (km) Brightness Sun altitude
Rises 20:52:59 0° 337° (NNW) 3,096 8.7 -10.2°
Reaches altitude 10° 20:55:20 10° 340° (NNW) 2,174 7.6 -10.5°
Maximum altitude 21:00:11 63° 62° (ENE) 785 4.0 -11.0°
Enters shadow 21:04:05 16° 142° (SE) 1,814 5.3 -11.4°
